Regional Weather Roundup
Issued by NWS

Home | Current Version | Previous Version | Text Only | Print | Product List | Glossary Off
Versions: 1 2 3 4 5 6 7 8 9 10 11 12 13 14 15 16 17 18 19 20 21 22 23 24 25 26 27 28 29 30 31 32 33 34 35 36 37 38 39 40 41 42 43 44 45 46 47 48 49 50

000
ASUS45 KCYS 132010
RWRWY

WYOMING REGIONAL WEATHER ROUNDUP
NATIONAL WEATHER SERVICE CHEYENNE WY
200 PM MDT SUN JUL 13 2014

NOTE:  "FAIR" INDICATES FEW OR NO CLOUDS BELOW 12,000 FEET
WITH NO SIGNIFICANT WEATHER AND/OR OBSTRUCTIONS TO VISIBILITY.

WYZ001-132100-
YELLOWSTONE NATIONAL PARK

CITY           SKY/WX    TMP DP  RH WIND       PRES   REMARKS
LK YELLOWSTONE   N/A     68  43  40 SE3       30.50F
W YELLOWSTONE  NOT AVBL

$$
WYZ002>013-054>058-071-098>099-132100-
NORTHERN WYOMING

CITY           SKY/WX    TMP DP  RH WIND       PRES   REMARKS
JACKSON        SUNNY    N/A N/A N/A E8        30.38F
CODY           SUNNY     82  48  30 NE9       30.29F
GREYBULL       NOT AVBL
WORLAND        NOT AVBL
SHERIDAN       NOT AVBL
BUFFALO        MOSUNNY   82  42  24 N18G30    30.28F
GILLETTE       SUNNY     86  39  19 NW21G28   30.22S
HULETT         FAIR      81  46  30 MISG      30.23F
NEWCASTLE      FAIR      82  41  23 NW13G23   30.20F

$$
WYZ014>020-022>026-101>103-132100-
CENTRAL WYOMING

CITY           SKY/WX    TMP DP  RH WIND       PRES   REMARKS
BIG PINEY      NOT AVBL
PINEDALE       CLEAR     79  41  25 N8        30.41F
DUBOIS         MOCLDY    77  41  27 E8        30.40F
LANDER         NOT AVBL
RIVERTON       NOT AVBL
CASPER         SUNNY     85  44  23 VRB6      30.27F
DOUGLAS        MOSUNNY   87  43  21 VRB7      30.25F

$$
WYZ021-027>030-104>119-132100-
SOUTHERN WYOMING

CITY           SKY/WX    TMP DP  RH WIND       PRES   REMARKS
EVANSTON       NOT AVBL
KEMMERER       PTCLDY   N/A N/A N/A CALM      30.42F
ROCK SPRINGS   NOT AVBL
DIXON          FAIR      82  43  24 NW10G16   30.36F
RAWLINS        MOSUNNY   83  42  23 N8        30.36F
SARATOGA       FAIR      81  45  28 N10G16    30.39F
LARAMIE        SUNNY     76  49  38 W7        30.39F
CHEYENNE       TSTM      55  53  93 NE18G24   30.36R
TORRINGTON     PTSUNNY   76  58  53 E10       30.21S

$$



USA.gov is the U.S. government's official web portal to all federal, state and local government web resources and services.